CAPE
11 57 108 109 88 116 117 72 99 541 330 446 504 393 444 478 195 257 231 138 13 15 66 99 106 100 20 7 8 45 67 61 26 24 8 1 9 22 27 13 9 39 49 51
1 63 139 110 74 193 199 171 387 323 232 442 403 331 81 292 148 54 243 292 5 60 97 130 158 88 37 68 9 96 161 100 58 20 12 2 12 35 38 47 46 28 26 23
0 29 89 73 150 245 184 148 490 374 362 378 377 423 149 87 78 72 39 327 238 173 156 225 252 457 495 74 152 559 358 203 85 50 32 60 69 84 42 68 43 37 20 39
0 37 46 73 60 134 130 212 135 419 505 397 333 176 283 47 48 35 39 207 317 261 225 230 364 577 656 568 472 681 674 390 90 73 46 50 46 66 61 65 51 116 64 67
41 32 58 96 121 33 243 214 237 363 480 439 346 311 270 26 85 132 195 257 331 298 293 352 464 411 675 850 905 856 755 553 254 86 74 42 51 34 113 64 98 135 147 75
51 33 21 153 16 37 104 144 210 301 316 323 312 103 297 69 60 64 62 69 134 330 516 540 553 543 590 804 855 698 779 688 358 103 59 94 92 105 104 103 110 89 51 51
113 53 1 11 126 58 127 193 85 150 280 237 145 41 172 20 34 80 49 39 59 203 281 327 433 397 429 531 608 510 495 636 361 106 62 62 66 148 144 101 78 112 46 34
146 142 3 8 9 57 94 44 9 13 31 111 13 105 0 12 74 83 63 27 2 20 155 246 372 344 315 454 594 676 534 515 349 148 97 71 85 80 104 74 91 76 60 36
220 222 16 1 0 0 90 14 0 3 95 132 292 12 3 10 4 0 0 0 15 54 155 257 317 215 327 556 517 646 514 396 383 139 99 147 143 160 123 126 155 59 107 54
105 89 0 0 0 0 0 0 3 108 43 77 170 123 92 14 3 2 10 39 81 119 156 176 176 192 130 109 121 205 388 509 487 296 58 52 149 178 172 182 150 130 140 131
0 0 0 0 0 0 0 10 0 13 26 56 32 148 0 0 1 7 25 49 127 178 202 216 190 135 89 121 300 523 396 238 300 200 129 57 138 167 231 215 153 146 171 154
0 0 0 0 0 0 0 0 0 8 99 9 1 77 0 2 7 18 71 61 79 139 31 11 8 0 0 0 1 30 358 482 190 112 20 28 3 179 167 164 113 134 203 141
0 0 0 1 0 0 0 0 0 0 0 20 5 170 3 11 9 27 98 81 25 2 0 0 0 0 1 9 13 17 36 217 378 467 167 19 19 22 364 220 300 212 162 171
27 7 0 1 0 0 0 0 0 0 5 12 22 31 30 25 38 52 32 5 0 0 0 0 2 5 12 25 30 39 47 56 240 518 510 55 17 39 255 182 243 125 180 116
0 0 0 0 0 0 0 0 0 0 0 2 16 15 34 26 39 35 0 0 0 0 1 3 7 11 23 43 51 48 57 66 299 534 551 129 9 100 209 187 239 166 172 122
0 0 0 0 0 0 0 0 0 0 0 5 21 22 17 1 23 0 0 0 0 1 6 6 10 8 20 34 51 64 72 94 119 155 334 365 49 79 227 184 168 151 174 162
0 0 0 13 0 0 3 0 1 4 8 16 51 52 7 26 0 0 1 0 1 7 15 20 19 24 32 39 58 67 77 97 105 135 147 212 113 76 106 173 175 155 216 145
16 3 10 33 6 13 98 0 0 4 5 14 13 1 2 0 0 0 0 0 2 17 25 37 41 46 56 63 55 65 90 82 114 97 54 33 109 63 85 152 174 251 288 259
18 72 105 65 58 23 28 0 3 14 34 12 10 11 0 0 0 3 0 5 20 37 38 46 53 70 74 80 88 102 96 86 83 102 108 55 104 53 77 138 244 309 276 230
72 268 315 153 30 22 197 1 5 8 21 1 0 0 0 0 0 1 3 18 23 33 50 73 86 103 110 117 111 117 86 85 83 82 101 106 148 97 76 172 336 400 395 263
301 278 230 78 39 66 0 0 0 22 13 0 0 0 0 1 3 8 18 21 30 44 53 65 90 108 111 90 101 108 123 95 86 101 100 108 134 41 58 145 125 137 275 399
272 159 116 18 2 15 0 0 3 0 0 0 0 0 0 1 5 12 17 22 18 14 21 27 34 47 71 103 89 77 77 65 66 94 104 109 111 153 178 134 76 24 136 392
162 166 294 70 101 0 0 0 0 0 0 0 0 0 0 2 11 12 10 0 3 12 15 18 27 29 41 56 52 55 51 41 30 27 96 131 131 85 116 183 163 102 114 484
4 0 2 0 0 0 0 0 0 0 0 0 0 0 3 7 5 0 0 1 6 9 7 14 16 16 29 0 0 40 46 54 45 49 14 132 181 80 101 166 206 90 124 89
95 0 9 0 0 0 0 0 0 0 0 0 0 0 0 0 0 0 0 4 4 0 0 0 0 0 0 8 43 37 49 36 43 55 51 85 85 121 100 102 186 138 20 0
6 94 0 0 0 0 0 0 0 0 0 0 0 0 0 0 0 0 0 0 0 5 0 0 0 0 0 29 12 33 41 47 74 72 45 43 41 69 107 106 144 31 0 0
CIN
-26 -3 -0 -1 -2 -2 -1 -0 -0 -46 -94 -43 -29 -42 -42 -18 -23 -2 -1 -15 -4 -0 -0 -0 -0 -0 -1 -4 -0 -8 -2 -15 -15 -0 -9 -0 -0 -0 -0 -0 -0 -0 -0 -0
-0 -0 -8 -12 -15 -15 -5 -0 -3 -75 -116 -46 -45 -35 -123 -27 -32 -50 -0 -0 -18 -0 -0 -0 -5 -14 -7 -45 -12 -18 -1 -2 -2 -5 -18 -2 -0 -0 -0 -0 -0 -0 -0 -0
-0 -2 -20 -12 -11 -8 -0 -0 -5 -0 -70 -53 -36 -9 -43 -57 -38 -26 -48 -0 -1 -15 -11 -7 -2 -0 -0 -22 -22 -0 -0 -0 -12 -24 -1 -0 -0 -0 -0 -0 -0 -0 -0 -0
-2 -23 -10 -5 -3 -16 -0 -23 -5 -12 -14 -0 -51 -0 -3 -21 -11 -2 -1 -1 -0 -0 -0 -0 -0 -0 -0 -2 -0 -0 -0 -0 -7 -11 -0 -0 -0 -0 -0 -0 -0 -0 -0 -0
-10 -16 -8 -3 -27 -48 -15 -33 -5 -2 -0 -8 -7 -1 -0 -31 -2 -0 -0 -0 -0 -0 -0 -0 -0 -0 -0 -0 -0 -0 -0 -0 -2 -16 -10 -0 -0 -0 -0 -0 -0 -0 -0 -0
-20 -84 -76 -58 -103 -72 -87 -28 -14 -4 -0 -0 -5 -7 -0 -0 -0 -0 -0 -0 -0 -0 -0 -0 -0 -0 -0 -0 -0 -0 -0 -0 -1 -17 -5 -0 -0 -0 -0 -0 -0 -0 -0 -0
-39 -62 -26 -76 -67 -90 -46 -1 -0 -3 -0 -0 -38 -5 -1 -0 -0 -0 -0 -0 -0 -0 -0 -0 -0 -0 -0 -0 -0 -0 -0 -0 -1 -17 -4 -0 -0 -0 -0 -0 -0 -0 -0 -0
-0 -9 -18 -6 -14 -30 -3 -6 -0 -0 -0 -0 -30 -0 -0 -0 -0 -0 -0 -0 -0 -4 -0 -0 -0 -0 -0 -0 -0 -0 -0 -0 -0 -65 -14 -0 -0 -0 -0 -0 -0 -0 -0 -0
-0 -5 -11 -11 -0 -0 -1 -35 -0 -0 -0 -0 -0 -0 -0 -0 -0 -0 -0 -1 -3 -0 -0 -0 -0 -2 -9 -1 -1 -0 -2 -4 -0 -17 -17 -4 -8 -2 -0 -0 -0 -0 -0 -0
-38 -7 -0 -0 -0 -0 -0 -0 -0 -3 -0 -0 -0 -0 -0 -0 -0 -0 -0 -0 -0 -0 -0 -0 -0 -7 -30 -30 -37 -53 -19 -2 -0 -2 -45 -46 -6 -9 -6 -0 -0 -0 -5 -3
-0 -0 -0 -0 -0 -0 -0 -0 -0 -15 -2 -0 -0 -1 -0 -0 -0 -0 -0 -0 -0 -0 -0 -0 -0 -0 -23 -17 -0 -0 -0 -1 -0 -1 -14 -60 -8 -1 -8 -0 -0 -0 -3 -4
-1 -0 -0 -0 -0 -0 -0 -0 -0 -0 -0 -1 -0 -5 -0 -0 -0 -0 -0 -0 -0 -0 -0 -0 -0 -0 -0 -0 -0 -0 -0 -0 -3 -19 -34 -31 -12 -2 -9 -43 -1 -0 -0 -1
-0 -13 -0 -0 -0 -0 -0 -0 -0 -0 -0 -1 -4 -0 -0 -0 -0 -0 -0 -0 -3 -0 -0 -0 -0 -0 -0 -0 -0 -0 -0 -1 -0 -0 -7 -32 -0 -46 -0 -4 -1 -0 -0 -0
-42 -56 -0 -0 -0 -0 -0 -0 -0 -0 -0 -0 -0 -0 -0 -0 -0 -0 -0 -0 -0 -0 -0 -0 -0 -0 -0 -0 -0 -0 -0 -0 -0 -0 -0 -12 -7 -35 -2 -1 -12 -2 -0 -0
-0 -0 -0 -0 -0 -0 -0 -0 -0 -0 -0 -0 -0 -0 -0 -0 -0 -0 -0 -0 -0 -0 -0 -0 -0 -0 -0 -0 -0 -0 -0 -0 -0 -0 -0 -4 -22 -7 -11 -1 -6 -0 -0 -0
-0 -0 -0 -0 -0 -0 -0 -0 -0 -0 -0 -0 -0 -1 -0 -5 -0 -0 -0 -0 -0 -0 -0 -0 -0 -0 -0 -0 -0 -0 -0 -0 -0 -2 -0 -0 -1 -13 -5 -0 -4 -0 -0 -0
-0 -0 -0 -0 -0 -0 -0 -0 -0 -0 -0 -0 -0 -0 -1 -0 -0 -0 -0 -0 -0 -0 -0 -0 -0 -0 -0 -0 -0 -0 -0 -0 -0 -0 -0 -5 -0 -0 -0 -0 -0 -0 -0 -0
-15 -1 -0 -0 -0 -0 -21 -0 -0 -0 -0 -0 -0 -0 -0 -0 -0 -0 -0 -0 -0 -0 -0 -0 -0 -0 -0 -0 -0 -0 -0 -0 -0 -0 -4 -2 -5 -0 -0 -0 -0 -0 -0 -0
-21 -2 -1 -0 -1 -0 -25 -0 -0 -0 -0 -0 -0 -0 -0 -0 -0 -0 -0 -0 -0 -0 -0 -0 -0 -0 -0 -0 -0 -0 -0 -0 -0 -0 -0 -4 -0 -0 -0 -4 -0 -0 -0 -0
-33 -13 -0 -0 -0 -0 -3 -0 -0 -0 -0 -0 -0 -0 -0 -0 -0 -0 -0 -0 -0 -0 -0 -0 -0 -0 -0 -0 -0 -0 -0 -0 -0 -0 -0 -0 -0 -0 -1 -0 -0 -0 -0 -0
-2 -0 -0 -0 -0 -0 -0 -0 -0 -0 -0 -0 -0 -0 -0 -0 -0 -0 -0 -0 -0 -0 -0 -0 -0 -0 -0 -0 -0 -0 -0 -0 -0 -0 -0 -0 -0 -10 -0 -1 -0 -6 -2 -0
-1 -0 -0 -0 -0 -0 -0 -0 -0 -0 -0 -0 -0 -0 -0 -0 -0 -0 -0 -0 -0 -0 -0 -0 -0 -0 -0 -0 -0 -0 -0 -1 -0 -0 -0 -0 -0 -0 -0 -0 -0 -1 -0 -0
-5 -15 -0 -10 -6 -0 -0 -0 -0 -0 -0 -0 -0 -0 -0 -0 -0 -0 -0 -0 -0 -0 -0 -0 -0 -0 -0 -0 -0 -0 -0 -0 -0 -0 -0 -0 -0 -0 -0 -0 -0 -0 -0 -0
-5 -0 -5 -0 -0 -0 -0 -0 -0 -0 -0 -0 -0 -0 -0 -0 -0 -0 -0 -0 -0 -0 -0 -0 -0 -0 -0 -0 -0 -0 -0 -0 -0 -0 -0 -0 -0 -0 -0 -0 -0 -0 -0 -0
-28 -0 -33 -0 -0 -0 -0 -0 -0 -0 -0 -0 -0 -0 -0 -0 -0 -0 -0 -0 -0 -0 -0 -0 -0 -0 -0 -0 -0 -0 -0 -0 -0 -0 -0 -0 -0 -0 -0 -0 -0 -0 -0 -0
-52 -17 -0 -0 -0 -0 -0 -0 -0 -0 -0 -0 -0 -0 -0 -0 -0 -0 -0 -0 -0 -0 -0 -0 -0 -0 -0 -0 -0 -0 -0 -0 -0 -0 -0 -0 -0 -0 -0 -0 -0 -7 -0 -0
Wind_Speed
nan nan 5 10 nan 8 12 nan nan 23 24 19 20 22 21 19 17 17 18 19 nan nan nan nan 25 29 nan nan nan nan nan nan nan nan nan nan nan nan nan nan nan nan nan nan
nan nan 13 11 nan 19 23 26 28 28 27 17 21 22 nan 26 23 nan 12 19 nan nan nan 23 27 nan nan nan nan nan 34 36 nan nan nan nan nan nan nan nan nan nan nan nan
nan nan nan nan 21 27 29 29 37 28 34 23 21 25 27 nan nan nan nan 23 27 22 20 25 30 27 25 nan 29 27 32 37 nan nan nan nan nan nan nan nan nan nan nan nan
nan nan nan nan nan 22 16 30 35 41 36 18 21 16 27 nan nan nan nan 25 25 24 26 27 28 26 28 30 32 29 31 36 nan nan nan nan nan nan nan nan nan 32 nan nan
nan nan nan nan 18 nan 28 35 41 40 27 25 26 18 37 nan nan 28 27 25 23 24 26 28 27 25 32 33 32 32 36 38 37 nan nan nan nan nan 32 nan nan 27 24 nan
nan nan nan 20 nan nan 42 44 41 30 19 18 28 18 40 nan nan nan nan nan 24 21 23 26 26 30 31 35 36 37 40 39 37 35 nan nan nan 27 28 27 26 nan nan nan
22 nan nan nan 33 nan 38 37 nan 22 27 20 27 nan 30 nan nan nan nan nan nan 27 31 28 31 34 36 38 39 39 41 38 32 32 nan nan nan 27 25 28 nan 21 nan nan
18 33 nan nan nan nan nan nan nan nan nan 18 nan 25 nan nan nan nan nan nan nan nan 31 32 34 36 36 35 33 31 33 30 39 28 nan nan nan nan 25 nan nan nan nan nan
16 28 nan nan nan nan nan nan nan nan nan 12 30 nan nan nan nan nan nan nan nan nan 34 36 38 37 33 32 33 25 30 36 33 42 nan 33 29 28 24 24 24 nan 19 nan
27 nan nan nan nan nan nan nan nan 20 nan nan 33 26 nan nan nan nan nan nan nan 34 35 36 36 30 31 36 37 30 28 29 35 39 nan nan 28 26 26 20 19 17 16 15
nan nan nan nan nan nan nan nan nan nan nan nan nan 31 nan nan nan nan nan nan 30 29 30 28 26 27 nan 26 29 32 33 34 36 40 33 nan 24 22 24 20 14 13 13 14
nan nan nan nan nan nan nan nan nan nan nan nan nan nan nan nan nan nan nan nan nan 22 nan nan nan nan nan nan nan nan 27 32 33 34 nan nan nan 20 20 21 12 9 6 11
nan nan nan nan nan nan nan nan nan nan nan nan nan 36 nan nan nan nan nan nan nan nan nan nan nan nan nan nan nan nan nan 27 25 28 29 nan nan nan 13 11 12 8 7 7
nan nan nan nan nan nan nan nan nan nan nan nan nan nan nan nan nan nan nan nan nan nan nan nan nan nan nan nan nan nan nan nan 24 26 24 nan nan nan 13 10 10 9 4 4
nan nan nan nan nan nan nan nan nan nan nan nan nan nan nan nan nan nan nan nan nan nan nan nan nan nan nan nan nan nan nan nan 20 17 15 19 nan 14 12 13 9 6 7 5
nan nan nan nan nan nan nan nan nan nan nan nan nan nan nan nan nan nan nan nan nan nan nan nan nan nan nan nan nan nan nan nan 22 17 7 8 nan nan 9 8 5 5 6 7
nan nan nan nan nan nan nan nan nan nan nan nan nan nan nan nan nan nan nan nan nan nan nan nan nan nan nan nan nan nan nan nan 17 16 9 7 12 nan 6 11 6 5 8 8
nan nan nan nan nan nan nan nan nan nan nan nan nan nan nan nan nan nan nan nan nan nan nan nan nan nan nan nan nan nan nan nan 14 nan nan nan 11 nan nan 10 6 5 5 8
nan nan 16 nan nan nan nan nan nan nan nan nan nan nan nan nan nan nan nan nan nan nan nan nan nan nan nan nan nan 22 nan nan nan 10 7 nan 6 nan nan 12 10 6 6 8
nan 14 12 16 nan nan 26 nan nan nan nan nan nan nan nan nan nan nan nan nan nan nan nan nan nan 30 28 27 25 19 nan nan nan nan 11 13 13 nan nan 6 16 12 6 8
19 15 14 nan nan nan nan nan nan nan nan nan nan nan nan nan nan nan nan nan nan nan nan nan nan 30 27 nan 21 18 17 nan nan 15 13 15 17 nan nan 12 9 13 14 8
12 11 14 nan nan nan nan nan nan nan nan nan nan nan nan nan nan nan nan nan nan nan nan nan nan nan nan 26 nan nan nan nan nan nan 16 17 19 22 25 19 nan nan 15 13
13 11 13 nan 19 nan nan nan nan nan nan nan nan nan nan nan nan nan nan nan nan nan nan nan nan nan nan nan nan nan nan nan nan nan nan 20 21 nan 28 29 22 17 15 17
nan nan nan nan nan nan nan nan nan nan nan nan nan nan nan nan nan nan nan nan nan nan nan nan nan nan nan nan nan nan nan nan nan nan nan 19 23 nan 26 28 33 nan 25 nan
nan nan nan nan nan nan nan nan nan nan nan nan nan nan nan nan nan nan nan nan nan nan nan nan nan nan nan nan nan nan nan nan nan nan nan nan nan 27 27 28 31 37 nan nan
nan nan nan nan nan nan nan nan nan nan nan nan nan nan nan nan nan nan nan nan nan nan nan nan nan nan nan nan nan nan nan nan nan nan nan nan nan nan 27 28 30 nan nan nan
Wind_Direction
nan nan 252 254 nan 13 9 nan nan 325 334 331 312 325 327 326 324 326 338 327 nan nan nan nan 331 324 nan nan nan nan nan nan nan nan nan nan nan nan nan nan nan nan nan nan
nan nan 284 326 nan 4 1 358 340 340 341 344 325 317 nan 326 326 nan 325 331 nan nan nan 328 327 nan nan nan nan nan 315 307 nan nan nan nan nan nan nan nan nan nan nan nan
nan nan nan nan 349 3 348 5 340 351 338 333 332 325 323 nan nan nan nan 325 334 328 315 314 321 329 321 nan 317 315 313 310 nan nan nan nan nan nan nan nan nan nan nan nan
nan nan nan nan nan 1 25 331 344 340 344 326 333 298 316 nan nan nan nan 324 331 326 318 315 311 315 317 312 314 307 306 302 nan nan nan nan nan nan nan nan nan 308 nan nan
nan nan nan nan 324 nan 324 331 335 339 348 331 325 330 302 nan nan 307 313 318 319 320 318 310 301 297 306 309 302 301 299 299 302 nan nan nan nan nan 299 nan nan 309 304 nan
nan nan nan 311 nan nan 326 326 328 329 326 350 302 330 302 nan nan nan nan nan 300 300 304 304 297 296 296 300 302 300 304 306 304 306 nan nan nan 303 298 292 302 nan nan nan
324 nan nan nan 326 nan 334 334 nan 340 337 290 308 nan 292 nan nan nan nan nan nan 287 294 301 306 298 302 306 301 300 301 304 316 314 nan nan nan 301 303 296 nan 290 nan nan
326 323 nan nan nan nan nan nan nan nan nan 259 nan 306 nan nan nan nan nan nan nan nan 292 290 288 289 288 278 278 288 289 303 315 320 nan nan nan nan 300 nan nan nan nan nan
297 307 nan nan nan nan nan nan nan nan nan 330 285 nan nan nan nan nan nan nan nan nan 291 292 291 285 286 281 281 299 326 310 301 323 nan 306 304 301 293 301 303 nan 286 nan
295 nan nan nan nan nan nan nan nan 324 nan nan 300 317 nan nan nan nan nan nan nan 298 295 291 288 284 290 293 283 319 323 320 321 315 nan nan 307 307 298 295 303 287 284 294
nan nan nan nan nan nan nan nan nan nan nan nan nan 294 nan nan nan nan nan nan 300 292 286 288 287 287 nan 285 291 300 307 312 309 305 304 nan 294 292 298 293 289 279 287 300
nan nan nan nan nan nan nan nan nan nan nan nan nan nan nan nan nan nan nan nan nan 297 nan nan nan nan nan nan nan nan 306 312 311 311 nan nan nan 276 277 287 282 284 248 290
nan nan nan nan nan nan nan nan nan nan nan nan nan 298 nan nan nan nan nan nan nan nan nan nan nan nan nan nan nan nan nan 309 305 301 296 nan nan nan 243 263 270 261 230 274
nan nan nan nan nan nan nan nan nan nan nan nan nan nan nan nan nan nan nan nan nan nan nan nan nan nan nan nan nan nan nan nan 302 308 299 nan nan nan 270 248 254 274 202 256
nan nan nan nan nan nan nan nan nan nan nan nan nan nan nan nan nan nan nan nan nan nan nan nan nan nan nan nan nan nan nan nan 303 304 299 289 nan 274 272 225 243 234 199 226
nan nan nan nan nan nan nan nan nan nan nan nan nan nan nan nan nan nan nan nan nan nan nan nan nan nan nan nan nan nan nan nan 318 318 313 264 nan nan 235 203 228 225 183 225
nan nan nan nan nan nan nan nan nan nan nan nan nan nan nan nan nan nan nan nan nan nan nan nan nan nan nan nan nan nan nan nan 318 315 323 189 321 nan 213 172 210 194 196 223
nan nan nan nan nan nan nan nan nan nan nan nan nan nan nan nan nan nan nan nan nan nan nan nan nan nan nan nan nan nan nan nan 317 nan nan nan 9 nan nan 162 207 168 190 188
nan nan 320 nan nan nan nan nan nan nan nan nan nan nan nan nan nan nan nan nan nan nan nan nan nan nan nan nan nan 318 nan nan nan 285 259 nan 320 nan nan 180 187 179 197 208
nan 340 343 333 nan nan 315 nan nan nan nan nan nan nan nan nan nan nan nan nan nan nan nan nan nan 331 325 322 326 320 nan nan nan nan 260 250 203 nan nan 173 185 188 190 208
334 340 354 nan nan nan nan nan nan nan nan nan nan nan nan nan nan nan nan nan nan nan nan nan nan 328 328 nan 320 316 304 nan nan 249 250 243 232 nan nan 193 220 188 180 185
324 328 330 nan nan nan nan nan nan nan nan nan nan nan nan nan nan nan nan nan nan nan nan nan nan nan nan 317 nan nan nan nan nan nan 239 238 234 225 222 215 nan nan 217 196
321 304 285 nan 296 nan nan nan nan nan nan nan nan nan nan nan nan nan nan nan nan nan nan nan nan nan nan nan nan nan nan nan nan nan nan 233 226 nan 223 218 220 226 200 197
nan nan nan nan nan nan nan nan nan nan nan nan nan nan nan nan nan nan nan nan nan nan nan nan nan nan nan nan nan nan nan nan nan nan nan 241 232 nan 226 223 219 nan 212 nan
nan nan nan nan nan nan nan nan nan nan nan nan nan nan nan nan nan nan nan nan nan nan nan nan nan nan nan nan nan nan nan nan nan nan nan nan nan 227 222 223 227 221 nan nan
nan nan nan nan nan nan nan nan nan nan nan nan nan nan nan nan nan nan nan nan nan nan nan nan nan nan nan nan nan nan nan nan nan nan nan nan nan nan 223 221 225 nan nan nan